Location: ???? ????
(41.4149°N, 22.8816°E)
Time: 14:55:35
(UTC+00:00)

Cosmos 921 Rocket - Pass Details

Date: 14 July 2020
Orbit: 572 x 632 km, 75.8° (Epoch: 03 August)

Event Time Altitude Azimuth Distance (km) Brightness Sun altitude
Rises 00:30:19 0° 349° (N) 2,894 7.3 -21.5°
Reaches altitude 10° 00:32:42 10° 357° (N) 1,974 6.4 -21.2°
Maximum altitude 00:36:52 41° 68° (ENE) 877 4.2 -20.9°
Enters shadow 00:40:28 13° 137° (SE) 1,747 5.2 -20.5°
